Time,TemperatureF,DewpointF,PressureIn,WindDirection,WindDirectionDegrees,WindSpeedMPH,WindSpeedGustMPH,Humidity,HourlyPrecipIn,Conditions,Clouds,dailyrainin,SoftwareType,DateUTC
2013-01-23 14:16:00,11.1,-14.4,30.15,WNW,301,2.0,6.0,30,0.00,,,0.00,Wunderground v.1.15,2013-01-23 19:16:00,
2013-01-23 14:20:00,10.5,-15.6,30.15,NW,315,5.0,6.0,29,0.00,,,0.00,Wunderground v.1.15,2013-01-23 19:20:00,
2013-01-23 14:25:00,10.0,-16.0,30.15,NW,306,6.0,6.0,29,0.00,,,0.00,Wunderground v.1.15,2013-01-23 19:25:00,
2013-01-23 14:30:00,9.9,-15.4,30.15,NW,315,5.0,5.0,30,0.00,,,0.00,Wunderground v.1.15,2013-01-23 19:30:00,
2013-01-23 14:35:00,10.7,-14.1,30.15,SW,229,2.0,5.0,31,0.00,,,0.00,Wunderground v.1.15,2013-01-23 19:35:00,
2013-01-23 14:40:00,11.1,-15.0,30.14,NW,304,2.0,3.0,29,0.00,,,0.00,Wunderground v.1.15,2013-01-23 19:40:00,
2013-01-23 14:50:00,11.1,-15.7,30.14,SSW,200,2.0,3.0,28,0.00,,,0.00,Wunderground v.1.15,2013-01-23 19:50:00,
2013-01-23 14:55:00,10.7,-16.1,30.14,NW,306,2.0,3.0,28,0.00,,,0.00,Wunderground v.1.15,2013-01-23 19:55:00,
2013-01-23 15:00:00,10.4,-17.0,30.14,WNW,296,4.0,4.0,27,0.00,,,0.00,Wunderground v.1.15,2013-01-23 20:00:00,
2013-01-23 15:10:00,10.2,-17.2,30.14,North,10,3.0,3.0,27,0.00,,,0.00,Wunderground v.1.15,2013-01-23 20:10:00,
2013-01-23 15:15:00,10.4,-17.0,30.14,SSW,196,2.0,8.0,27,0.00,,,0.00,Wunderground v.1.15,2013-01-23 20:15:00,
2013-01-23 15:20:00,10.0,-18.1,30.14,NW,306,1.0,8.0,26,0.00,,,0.00,Wunderground v.1.15,2013-01-23 20:20:00,
2013-01-23 15:25:00,9.9,-17.5,30.14,SW,227,2.0,8.0,27,0.00,,,0.00,Wunderground v.1.15,2013-01-23 20:25:00,
2013-01-23 15:35:00,10.2,-17.2,30.14,SW,226,0.0,8.0,27,0.00,,,0.00,Wunderground v.1.15,2013-01-23 20:35:00,
2013-01-23 15:40:00,10.9,-15.9,30.12,ESE,116,0.0,8.0,28,0.00,,,0.00,Wunderground v.1.15,2013-01-23 20:40:00,
2013-01-23 15:45:00,10.7,-16.8,30.12,NW,305,1.0,8.0,27,0.00,,,0.00,Wunderground v.1.15,2013-01-23 20:45:00,
2013-01-23 15:50:00,10.0,-17.4,30.12,SW,226,2.0,2.0,27,0.00,,,0.00,Wunderground v.1.15,2013-01-23 20:50:00,
2013-01-23 16:00:00,9.7,-17.7,30.12,WNW,296,1.0,1.0,27,0.00,,,0.00,Wunderground v.1.15,2013-01-23 21:00:00,
2013-01-23 16:05:00,9.3,-18.0,30.12,ESE,117,0.0,8.0,27,0.00,,,0.00,Wunderground v.1.15,2013-01-23 21:05:00,
2013-01-23 16:15:00,8.8,-18.4,30.13,NNW,342,1.0,8.0,27,0.00,,,0.00,Wunderground v.1.15,2013-01-23 21:15:00,
2013-01-23 16:20:00,8.6,-17.9,30.13,NNW,342,1.0,1.0,28,0.00,,,0.00,Wunderground v.1.15,2013-01-23 21:20:00,
2013-01-23 16:25:00,8.3,-18.2,30.13,WNW,295,1.0,8.0,28,0.00,,,0.00,Wunderground v.1.15,2013-01-23 21:25:00,
2013-01-23 16:30:00,8.1,-18.4,30.13,SW,227,1.0,8.0,28,0.00,,,0.00,Wunderground v.1.15,2013-01-23 21:30:00,
2013-01-23 16:35:00,8.1,-18.4,30.13,WNW,291,1.0,8.0,28,0.00,,,0.00,Wunderground v.1.15,2013-01-23 21:35:00,
2013-01-23 16:40:00,8.1,-19.1,30.14,SW,220,1.0,1.0,27,0.00,,,0.00,Wunderground v.1.15,2013-01-23 21:40:00,
2013-01-23 16:45:00,7.9,-18.5,30.14,West,268,1.0,8.0,28,0.00,,,0.00,Wunderground v.1.15,2013-01-23 21:45:00,
2013-01-23 16:50:00,7.9,-18.5,30.14,NW,326,1.0,8.0,28,0.00,,,0.00,Wunderground v.1.15,2013-01-23 21:50:00,
2013-01-23 17:00:00,7.6,-16.8,30.14,NW,305,2.0,2.0,31,0.00,,,0.00,Wunderground v.1.15,2013-01-23 22:00:00,
2013-01-23 17:05:00,7.4,-15.2,30.14,South,185,1.0,8.0,34,0.00,,,0.00,Wunderground v.1.15,2013-01-23 22:05:00,
2013-01-23 17:15:00,7.0,-14.9,30.16,NW,309,2.0,8.0,35,0.00,,,0.00,Wunderground v.1.15,2013-01-23 22:15:00,
2013-01-23 17:20:00,7.0,-14.4,30.16,West,260,3.0,3.0,36,0.00,,,0.00,Wunderground v.1.15,2013-01-23 22:20:00,
2013-01-23 17:25:00,6.9,-14.5,30.16,West,268,3.0,5.0,36,0.00,,,0.00,Wunderground v.1.15,2013-01-23 22:25:00,
2013-01-23 17:30:00,6.7,-14.1,30.16,West,277,2.0,8.0,37,0.00,,,0.00,Wunderground v.1.15,2013-01-23 22:30:00,
2013-01-23 17:40:00,6.7,-15.2,30.17,SW,229,2.0,8.0,35,0.00,,,0.00,Wunderground v.1.15,2013-01-23 22:40:00,
2013-01-23 17:45:00,6.7,-15.8,30.17,NNW,329,1.0,8.0,34,0.00,,,0.00,Wunderground v.1.15,2013-01-23 22:45:00,
2013-01-23 17:50:00,6.7,-17.0,30.17,WNW,289,2.0,2.0,32,0.00,,,0.00,Wunderground v.1.15,2013-01-23 22:50:00,
2013-01-23 17:55:00,6.7,-16.4,30.18,NW,304,2.0,8.0,33,0.00,,,0.00,Wunderground v.1.15,2013-01-23 22:55:00,
2013-01-23 18:00:00,6.5,-16.0,30.18,West,272,1.0,1.0,34,0.00,,,0.00,Wunderground v.1.15,2013-01-23 23:00:00,
2013-01-23 18:05:00,6.3,-16.1,30.18,West,272,0.0,8.0,34,0.00,,,0.00,Wunderground v.1.15,2013-01-23 23:05:00,
2013-01-23 18:10:00,6.1,-16.3,30.19,West,272,0.0,8.0,34,0.00,,,0.00,Wunderground v.1.15,2013-01-23 23:10:00,
2013-01-23 18:20:00,5.8,-16.0,30.19,West,272,0.0,8.0,35,0.00,,,0.00,Wunderground v.1.15,2013-01-23 23:20:00,
2013-01-23 18:25:00,5.8,-16.0,30.19,NW,312,0.0,8.0,35,0.00,,,0.00,Wunderground v.1.15,2013-01-23 23:25:00,
2013-01-23 18:30:00,5.8,-18.4,30.19,NW,313,1.0,8.0,31,0.00,,,0.00,Wunderground v.1.15,2013-01-23 23:30:00,
2013-01-23 18:35:00,5.8,-18.4,30.19,SSE,157,2.0,8.0,31,0.00,,,0.00,Wunderground v.1.15,2013-01-23 23:35:00,
2013-01-23 18:40:00,6.0,-19.5,30.20,NW,309,2.0,8.0,29,0.00,,,0.00,Wunderground v.1.15,2013-01-23 23:40:00,
2013-01-23 18:45:00,6.0,-19.5,30.20,NNW,344,3.0,8.0,29,0.00,,,0.00,Wunderground v.1.15,2013-01-23 23:45:00,
2013-01-23 18:50:00,5.8,-19.7,30.20,NW,306,3.0,3.0,29,0.00,,,0.00,Wunderground v.1.15,2013-01-23 23:50:00,
2013-01-23 18:55:00,5.6,-20.5,30.20,NW,304,2.0,8.0,28,0.00,,,0.00,Wunderground v.1.15,2013-01-23 23:55:00,
2013-01-23 19:05:00,5.2,-18.3,30.20,ENE,65,0.0,8.0,32,0.00,,,0.00,Wunderground v.1.15,2013-01-24 00:05:00,
2013-01-23 19:10:00,4.8,-19.9,30.20,NW,312,1.0,1.0,30,0.00,,,0.00,Wunderground v.1.15,2013-01-24 00:10:00,
2013-01-23 19:15:00,4.7,-17.6,30.20,NW,325,0.0,8.0,34,0.00,,,0.00,Wunderground v.1.15,2013-01-24 00:15:00,
2013-01-23 19:20:00,4.3,-19.7,30.20,NNW,328,1.0,8.0,31,0.00,,,0.00,Wunderground v.1.15,2013-01-24 00:20:00,
2013-01-23 19:25:00,4.3,-17.4,30.21,North,357,2.0,9.0,35,0.00,,,0.00,Wunderground v.1.15,2013-01-24 00:25:00,
2013-01-23 19:35:00,4.5,-20.2,30.21,WNW,299,1.0,8.0,30,0.00,,,0.00,Wunderground v.1.15,2013-01-24 00:35:00,
2013-01-23 19:40:00,4.5,-22.2,30.21,South,178,2.0,2.0,27,0.00,,,0.00,Wunderground v.1.15,2013-01-24 00:40:00,
2013-01-23 19:45:00,4.5,-19.5,30.21,NW,316,2.0,3.0,31,0.00,,,0.00,Wunderground v.1.15,2013-01-24 00:45:00,
2013-01-23 19:50:00,3.7,-17.9,30.21,NE,44,1.0,1.0,35,0.00,,,0.00,Wunderground v.1.15,2013-01-24 00:50:00,
2013-01-23 19:55:00,3.2,-16.2,30.21,NW,308,0.0,8.0,39,0.00,,,0.00,Wunderground v.1.15,2013-01-24 00:55:00,
2013-01-23 20:00:00,2.8,-16.1,30.21,SE,131,0.0,8.0,40,0.00,,,0.00,Wunderground v.1.15,2013-01-24 01:00:00,
2013-01-23 20:05:00,2.4,-16.5,30.21,NNW,342,1.0,8.0,40,0.00,,,0.00,Wunderground v.1.15,2013-01-24 01:05:00,
2013-01-23 20:10:00,2.4,-16.0,30.21,NW,312,1.0,1.0,41,0.00,,,0.00,Wunderground v.1.15,2013-01-24 01:10:00,
2013-01-23 20:15:00,2.2,-15.7,30.21,North,1,0.0,8.0,42,0.00,,,0.00,Wunderground v.1.15,2013-01-24 01:15:00,
2013-01-23 20:20:00,2.0,-15.4,30.21,North,359,0.0,8.0,43,0.00,,,0.00,Wunderground v.1.15,2013-01-24 01:20:00,
2013-01-23 20:25:00,1.8,-15.1,30.21,North,350,0.0,8.0,44,0.00,,,0.00,Wunderground v.1.15,2013-01-24 01:25:00,
2013-01-23 20:30:00,1.7,-15.2,30.21,North,350,0.0,8.0,44,0.00,,,0.00,Wunderground v.1.15,2013-01-24 01:30:00,
2013-01-23 20:35:00,1.7,-14.8,30.21,NW,318,0.0,8.0,45,0.00,,,0.00,Wunderground v.1.15,2013-01-24 01:35:00,
2013-01-23 20:45:00,1.5,-15.0,30.21,NW,309,0.0,8.0,45,0.00,,,0.00,Wunderground v.1.15,2013-01-24 01:45:00,
2013-01-23 20:50:00,1.3,-15.2,30.21,NNW,343,0.0,8.0,45,0.00,,,0.00,Wunderground v.1.15,2013-01-24 01:50:00,
2013-01-23 20:55:00,1.3,-15.2,30.22,NNW,347,0.0,8.0,45,0.00,,,0.00,Wunderground v.1.15,2013-01-24 01:55:00,
2013-01-23 21:00:00,1.3,-14.7,30.22,NNW,347,0.0,8.0,46,0.00,,,0.00,Wunderground v.1.15,2013-01-24 02:00:00,
2013-01-23 21:05:00,1.1,-15.3,30.22,NNW,347,0.0,8.0,45,0.00,,,0.00,Wunderground v.1.15,2013-01-24 02:05:00,
2013-01-23 21:10:00,1.1,-14.9,30.21,North,0,0.0,8.0,46,0.00,,,0.00,Wunderground v.1.15,2013-01-24 02:10:00,
2013-01-23 21:15:00,0.9,-15.5,30.21,North,0,0.0,8.0,45,0.00,,,0.00,Wunderground v.1.15,2013-01-24 02:15:00,
2013-01-23 21:20:00,0.9,-15.5,30.21,North,0,0.0,8.0,45,0.00,,,0.00,Wunderground v.1.15,2013-01-24 02:20:00,
2013-01-23 21:25:00,0.9,-15.5,30.21,North,0,0.0,8.0,45,0.00,,,0.00,Wunderground v.1.15,2013-01-24 02:25:00,
2013-01-23 21:30:00,0.9,-15.5,30.21,NW,312,0.0,8.0,45,0.00,,,0.00,Wunderground v.1.15,2013-01-24 02:30:00,
2013-01-23 21:35:00,0.7,-15.7,30.21,NW,312,0.0,8.0,45,0.00,,,0.00,Wunderground v.1.15,2013-01-24 02:35:00,
2013-01-23 21:40:00,0.7,-15.7,30.21,NW,312,0.0,8.0,45,0.00,,,0.00,Wunderground v.1.15,2013-01-24 02:40:00,
2013-01-23 21:45:00,0.7,-16.1,30.21,NW,312,0.0,8.0,44,0.00,,,0.00,Wunderground v.1.15,2013-01-24 02:45:00,
2013-01-23 21:50:00,0.7,-15.7,30.21,NW,312,0.0,8.0,45,0.00,,,0.00,Wunderground v.1.15,2013-01-24 02:50:00,
2013-01-23 21:55:00,0.5,-15.9,30.21,NW,312,0.0,8.0,45,0.00,,,0.00,Wunderground v.1.15,2013-01-24 02:55:00,
2013-01-23 22:00:00,0.3,-15.2,30.21,NW,312,0.0,8.0,47,0.00,,,0.00,Wunderground v.1.15,2013-01-24 03:00:00,
2013-01-23 22:05:00,0.1,-15.4,30.21,NW,312,0.0,8.0,47,0.00,,,0.00,Wunderground v.1.15,2013-01-24 03:05:00,
2013-01-23 22:10:00,0.0,-15.1,30.21,NW,312,0.0,8.0,48,0.00,,,0.00,Wunderground v.1.15,2013-01-24 03:10:00,
2013-01-23 22:15:00,-0.2,-15.3,30.21,NW,312,0.0,8.0,48,0.00,,,0.00,Wunderground v.1.15,2013-01-24 03:15:00,
2013-01-23 22:25:00,-0.6,-15.2,30.21,NW,312,0.0,8.0,49,0.00,,,0.00,Wunderground v.1.15,2013-01-24 03:25:00,
2013-01-23 22:35:00,-0.8,-14.6,30.21,NW,312,0.0,8.0,51,0.00,,,0.00,Wunderground v.1.15,2013-01-24 03:35:00,
2013-01-23 22:40:00,-0.8,-14.6,30.22,NW,312,0.0,8.0,51,0.00,,,0.00,Wunderground v.1.15,2013-01-24 03:40:00,
2013-01-23 22:45:00,-0.6,-14.8,30.22,NW,312,0.0,8.0,50,0.00,,,0.00,Wunderground v.1.15,2013-01-24 03:45:00,
2013-01-23 22:50:00,-0.8,-15.0,30.22,NW,312,0.0,8.0,50,0.00,,,0.00,Wunderground v.1.15,2013-01-24 03:50:00,
2013-01-23 22:55:00,-0.8,-15.0,30.22,NW,312,0.0,8.0,50,0.00,,,0.00,Wunderground v.1.15,2013-01-24 03:55:00,
2013-01-23 23:00:00,-0.6,-14.8,30.22,NW,312,0.0,8.0,50,0.00,,,0.00,Wunderground v.1.15,2013-01-24 04:00:00,
2013-01-23 23:05:00,-0.6,-15.2,30.22,NW,312,0.0,8.0,49,0.00,,,0.00,Wunderground v.1.15,2013-01-24 04:05:00,
2013-01-23 23:10:00,-0.6,-15.2,30.21,NW,312,0.0,8.0,49,0.00,,,0.00,Wunderground v.1.15,2013-01-24 04:10:00,
2013-01-23 23:15:00,-0.6,-15.2,30.21,NW,312,0.0,8.0,49,0.00,,,0.00,Wunderground v.1.15,2013-01-24 04:15:00,
2013-01-23 23:20:00,-0.8,-15.4,30.21,NW,312,0.0,8.0,49,0.00,,,0.00,Wunderground v.1.15,2013-01-24 04:20:00,
2013-01-23 23:25:00,-1.0,-15.2,30.22,NW,312,0.0,8.0,50,0.00,,,0.00,Wunderground v.1.15,2013-01-24 04:25:00,
2013-01-23 23:30:00,-1.0,-15.2,30.22,NW,312,0.0,8.0,50,0.00,,,0.00,Wunderground v.1.15,2013-01-24 04:30:00,
2013-01-23 23:35:00,-1.0,-14.8,30.22,NW,312,0.0,8.0,51,0.00,,,0.00,Wunderground v.1.15,2013-01-24 04:35:00,
2013-01-23 23:40:00,-1.0,-14.8,30.21,NW,312,0.0,8.0,51,0.00,,,0.00,Wunderground v.1.15,2013-01-24 04:40:00,
2013-01-23 23:50:00,-1.0,-14.8,30.21,ENE,71,0.0,8.0,51,0.00,,,0.00,Wunderground v.1.15,2013-01-24 04:50:00,
2013-01-23 23:55:00,-1.0,-14.8,30.21,ENE,71,0.0,8.0,51,0.00,,,0.00,Wunderground v.1.15,2013-01-24 04:55:00,